Weather History for KNFL - May, 2014

Change the Weather History Date:

Wednesday, May 7, 2014

  Actual Average Record
Temperature  
Mean Temperature 51 °F -  
Max Temperature 66 °F 71 °F 86 °F (1969)
Min Temperature 36 °F 38 °F 26 °F (1984)
Degree Days  
Heating Degree Days 14    
Growing Degree Days 1 (Base 50)    
Moisture  
Dew Point 21 °F    
Average Humidity 33    
Maximum Humidity 59    
Minimum Humidity 13    
Precipitation  
Precipitation 0.00 in - - ()
Sea Level Pressure  
Sea Level Pressure 29.81 in    
Wind  
Wind Speed 6 mph (North)    
Max Wind Speed 20 mph    
Max Gust Speed 29 mph    
Visibility 10 miles    
Events      
Averages and records for this station are not official NWS values.
T = Trace of Precipitation, MM = Missing Value Source: NWS Daily Summary

Daily Weather History Graph

Daily Weather History Graph

Search for Another Location

Airport or City:

Trip Planner

Search our weather history database for the weather conditions in past years. The results will help you decide how hot, cold, wet, or windy it might be!

Date:

Astronomy

May. 07, 2014 Rise Set
Actual Time 5:48 AM PDT 7:54 PM PDT
Civil Twilight 5:19 AM PDT 8:24 PM PDT
Nautical Twilight 4:43 AM PDT 9:00 PM PDT
Astronomical Twilight 4:04 AM PDT 9:39 PM PDT
Moon 1:05 PM PDT (5/7) 1:48 AM PDT (5/7)
Length of Visible Light 15h 04m
Length of Day
14h 05m
First Quarter, 56% of the Moon is Illuminated
May 7
First Quarter
May 14
Full
May 21
Last Quarter
May 28
New
Jun 5
First Quarter

Hourly Weather History & Observations

Time (PDT) Temp. Windchill Dew Point Humidity Pressure Visibility Wind Dir Wind Speed Gust Speed Precip Events Conditions
12:56 AM 43.0 °F 39.5 °F 21.9 °F 43% 29.77 in 10.0 mi ENE 5.8 mph - N/A   Scattered Clouds
1:56 AM 43.0 °F - 21.9 °F 43% 29.77 in 10.0 mi Calm Calm - N/A   Clear
2:56 AM 39.9 °F - 21.0 °F 47% 29.77 in 10.0 mi Calm Calm - N/A   Mostly Cloudy
3:56 AM 41.0 °F - 21.9 °F 47% 29.78 in 10.0 mi Calm Calm - N/A   Overcast
4:56 AM 43.0 °F 39.5 °F 24.1 °F 47% 29.78 in 10.0 mi NE 5.8 mph - N/A   Overcast
5:56 AM 36.0 °F 29.6 °F 23.0 °F 59% 29.79 in 10.0 mi NE 8.1 mph - N/A   Mostly Cloudy
6:07 AM 41.0 °F 37.1 °F 25.0 °F 53% 29.86 in 10.0 mi NNE 5.8 mph - N/A   Mostly Cloudy
6:56 AM 45.0 °F 43.5 °F 26.1 °F 48% 29.81 in 10.0 mi SE 3.5 mph - N/A   Mostly Cloudy
7:56 AM 48.9 °F - 26.1 °F 41% 29.83 in 10.0 mi WSW 3.5 mph - N/A   Mostly Cloudy
8:56 AM 51.1 °F - 25.0 °F 36% 29.83 in 10.0 mi NW 10.4 mph - N/A   Mostly Cloudy
9:56 AM 53.1 °F - 25.0 °F 34% 29.83 in 10.0 mi NNE 9.2 mph - N/A   Mostly Cloudy
10:56 AM 54.0 °F - 24.1 °F 31% 29.83 in 10.0 mi WNW 4.6 mph - N/A   Mostly Cloudy
11:56 AM 59.0 °F - 24.1 °F 26% 29.83 in 10.0 mi NNW 8.1 mph 20.7 mph N/A   Mostly Cloudy
12:56 PM 61.0 °F - 23.0 °F 23% 29.81 in 10.0 mi NE 10.4 mph - N/A   Scattered Clouds
1:56 PM 63.0 °F - 23.0 °F 22% 29.81 in 10.0 mi North 10.4 mph 23.0 mph N/A   Mostly Cloudy
2:56 PM 66.0 °F - 16.0 °F 15% 29.80 in 10.0 mi NW 12.7 mph 18.4 mph N/A   Mostly Cloudy
3:56 PM 66.9 °F - 15.1 °F 14% 29.78 in 10.0 mi NNW 19.6 mph 28.8 mph N/A   Scattered Clouds
4:56 PM 66.0 °F - 14.0 °F 13% 29.78 in 10.0 mi NNW 11.5 mph 28.8 mph N/A   Scattered Clouds
5:56 PM 64.9 °F - 17.1 °F 16% 29.78 in 10.0 mi North 11.5 mph - N/A   Scattered Clouds
6:56 PM 64.0 °F - 18.0 °F 17% 29.79 in 10.0 mi North 9.2 mph - N/A   Scattered Clouds
7:56 PM 57.0 °F - 19.9 °F 24% 29.79 in 10.0 mi NNE 6.9 mph - N/A   Mostly Cloudy
8:56 PM 54.0 °F - 19.0 °F 25% 29.81 in 10.0 mi NE 5.8 mph - N/A   Mostly Cloudy
9:56 PM 51.1 °F - 21.0 °F 31% 29.83 in 10.0 mi NNE 5.8 mph - N/A   Scattered Clouds
10:56 PM 46.0 °F 41.9 °F 19.0 °F 34% 29.85 in 10.0 mi West 8.1 mph - N/A   Scattered Clouds
11:56 PM 48.9 °F - 19.0 °F 31% 29.86 in 10.0 mi WNW 6.9 mph - N/A   Clear